Time,TemperatureF,DewpointF,PressureIn,WindDirection,WindDirectionDegrees,WindSpeedMPH,WindSpeedGustMPH,Humidity,HourlyPrecipIn,Conditions,Clouds,dailyrainin,SoftwareType,DateUTC
2013-01-22 00:00:00,39.8,18.0,30.02,West,277,10.4,10.4,41,0.00,CLR,,0.00,WeatherDisplay:10.37,2013-01-22 05:00:00,
2013-01-22 00:05:00,39.6,17.8,30.02,NW,313,12.7,12.7,41,0.00,CLR,,0.00,WeatherDisplay:10.37,2013-01-22 05:05:00,
2013-01-22 00:10:00,39.5,17.7,30.02,NW,314,9.2,9.2,41,0.00,CLR,,0.00,WeatherDisplay:10.37,2013-01-22 05:10:00,
2013-01-22 00:16:00,39.5,17.1,30.02,WNW,288,15.0,15.0,40,0.00,CLR,,0.00,WeatherDisplay:10.37,2013-01-22 05:16:00,
2013-01-22 00:21:00,39.5,17.1,30.02,WNW,295,11.5,11.5,40,0.00,CLR,,0.00,WeatherDisplay:10.37,2013-01-22 05:21:00,
2013-01-22 00:26:00,39.4,17.0,30.02,NW,314,14.0,14.0,40,0.00,CLR,,0.00,WeatherDisplay:10.37,2013-01-22 05:26:00,
2013-01-22 00:31:00,39.2,16.9,30.02,WNW,295,11.5,11.5,40,0.00,CLR,,0.00,WeatherDisplay:10.37,2013-01-22 05:31:00,
2013-01-22 00:36:00,39.1,16.8,30.02,WNW,284,19.6,19.6,40,0.00,CLR,,0.00,WeatherDisplay:10.37,2013-01-22 05:36:00,
2013-01-22 00:41:00,39.1,16.8,30.02,WNW,282,16.1,16.1,40,0.00,CLR,,0.00,WeatherDisplay:10.37,2013-01-22 05:41:00,
2013-01-22 00:46:00,38.9,16.6,30.02,WNW,284,11.5,11.5,40,0.00,CLR,,0.00,WeatherDisplay:10.37,2013-01-22 05:46:00,
2013-01-22 00:51:00,38.6,16.3,30.02,West,280,12.7,12.7,40,0.00,CLR,,0.00,WeatherDisplay:10.37,2013-01-22 05:51:00,
2013-01-22 00:56:00,38.3,16.1,30.02,West,269,15.0,15.0,40,0.00,CLR,,0.00,WeatherDisplay:10.37,2013-01-22 05:56:00,
2013-01-22 01:01:00,38.1,15.9,30.02,WNW,298,13.8,13.8,40,0.00,CLR,,0.00,WeatherDisplay:10.37,2013-01-22 06:01:00,
2013-01-22 01:06:00,37.9,16.3,30.02,WSW,248,10.4,10.4,41,0.00,CLR,,0.00,WeatherDisplay:10.37,2013-01-22 06:06:00,
2013-01-22 01:11:00,37.6,16.0,30.02,West,273,15.0,15.0,41,0.00,CLR,,0.00,WeatherDisplay:10.37,2013-01-22 06:11:00,
2013-01-22 01:16:00,37.5,15.9,30.02,WNW,298,13.8,13.8,41,0.00,CLR,,0.00,WeatherDisplay:10.37,2013-01-22 06:16:00,
2013-01-22 01:21:00,37.5,15.9,30.02,WNW,292,12.7,12.7,41,0.00,CLR,,0.00,WeatherDisplay:10.37,2013-01-22 06:21:00,
2013-01-22 01:26:00,37.3,15.7,30.02,WNW,294,13.8,13.8,41,0.00,CLR,,0.00,WeatherDisplay:10.37,2013-01-22 06:26:00,
2013-01-22 01:31:00,37.2,15.6,30.03,West,277,11.5,11.5,41,0.00,CLR,,0.00,WeatherDisplay:10.37,2013-01-22 06:31:00,
2013-01-22 01:36:00,37.1,15.5,30.03,NW,308,10.4,10.4,41,0.00,CLR,,0.00,WeatherDisplay:10.37,2013-01-22 06:36:00,
2013-01-22 01:41:00,36.9,15.4,30.03,WNW,297,11.5,11.5,41,0.00,CLR,,0.00,WeatherDisplay:10.37,2013-01-22 06:41:00,
2013-01-22 01:46:00,36.7,15.2,30.03,NW,305,9.2,9.2,41,0.00,CLR,,0.00,WeatherDisplay:10.37,2013-01-22 06:46:00,
2013-01-22 01:51:00,36.6,15.1,30.03,NW,319,11.5,11.5,41,0.00,CLR,,0.00,WeatherDisplay:10.37,2013-01-22 06:51:00,
2013-01-22 01:56:00,36.3,14.8,30.03,NW,308,4.6,4.6,41,0.00,CLR,,0.00,WeatherDisplay:10.37,2013-01-22 06:56:00,
2013-01-22 02:01:00,36.1,14.6,30.04,WSW,254,9.2,9.2,41,0.00,CLR,,0.00,WeatherDisplay:10.37,2013-01-22 07:01:00,
2013-01-22 02:06:00,35.9,14.5,30.04,WNW,282,11.5,11.5,41,0.00,CLR,,0.00,WeatherDisplay:10.37,2013-01-22 07:06:00,
2013-01-22 02:11:00,35.9,14.5,30.03,NW,326,10.4,10.4,41,0.00,CLR,,0.00,WeatherDisplay:10.37,2013-01-22 07:11:00,
2013-01-22 02:16:00,35.8,14.4,30.03,NW,309,10.4,10.4,41,0.00,CLR,,0.00,WeatherDisplay:10.37,2013-01-22 07:16:00,
2013-01-22 02:21:00,35.6,14.7,30.04,WNW,292,5.8,5.8,42,0.00,CLR,,0.00,WeatherDisplay:10.37,2013-01-22 07:21:00,
2013-01-22 02:26:00,35.4,14.6,30.05,WNW,300,7.0,7.0,42,0.00,CLR,,0.00,WeatherDisplay:10.37,2013-01-22 07:26:00,
2013-01-22 02:31:00,35.2,14.4,30.05,West,280,9.2,9.2,42,0.00,CLR,,0.00,WeatherDisplay:10.37,2013-01-22 07:31:00,
2013-01-22 02:36:00,35.0,14.2,30.05,West,267,11.5,11.5,42,0.00,CLR,,0.00,WeatherDisplay:10.37,2013-01-22 07:36:00,
2013-01-22 02:41:00,34.9,14.6,30.05,West,267,10.4,10.4,43,0.00,CLR,,0.00,WeatherDisplay:10.37,2013-01-22 07:41:00,
2013-01-22 02:46:00,34.6,15.4,30.05,West,261,6.9,6.9,45,0.00,CLR,,0.00,WeatherDisplay:10.37,2013-01-22 07:46:00,
2013-01-22 02:51:00,34.4,14.7,30.05,West,281,6.9,6.9,44,0.00,CLR,,0.00,WeatherDisplay:10.37,2013-01-22 07:51:00,
2013-01-22 02:56:00,34.1,14.9,30.05,West,274,6.0,6.0,45,0.00,CLR,,0.00,WeatherDisplay:10.37,2013-01-22 07:56:00,
2013-01-22 03:01:00,33.8,14.7,30.05,WNW,290,4.6,4.6,45,0.00,CLR,,0.00,WeatherDisplay:10.37,2013-01-22 08:01:00,
2013-01-22 03:06:00,33.5,14.4,30.06,West,280,3.5,3.5,45,0.00,CLR,,0.00,WeatherDisplay:10.37,2013-01-22 08:06:00,
2013-01-22 03:11:00,33.4,14.3,30.06,West,280,3.0,3.0,45,0.00,CLR,,0.00,WeatherDisplay:10.37,2013-01-22 08:11:00,
2013-01-22 03:16:00,33.2,14.6,30.06,SW,234,4.0,4.0,46,0.00,CLR,,0.00,WeatherDisplay:10.37,2013-01-22 08:16:00,
2013-01-22 03:21:00,32.9,14.8,30.06,SW,234,4.6,4.6,47,0.00,CLR,,0.00,WeatherDisplay:10.37,2013-01-22 08:21:00,
2013-01-22 03:26:00,32.7,14.7,30.06,WSW,244,6.0,6.0,47,0.00,CLR,,0.00,WeatherDisplay:10.37,2013-01-22 08:26:00,
2013-01-22 03:31:00,32.5,14.0,30.06,WNW,288,9.2,9.2,46,0.00,CLR,,0.00,WeatherDisplay:10.37,2013-01-22 08:31:00,
2013-01-22 03:36:00,32.6,13.1,30.06,West,272,13.8,13.8,44,0.00,CLR,,0.00,WeatherDisplay:10.37,2013-01-22 08:36:00,
2013-01-22 03:41:00,32.8,13.2,30.06,WNW,286,11.5,11.5,44,0.00,CLR,,0.00,WeatherDisplay:10.37,2013-01-22 08:41:00,
2013-01-22 03:46:00,33.0,13.4,30.06,NW,304,4.6,4.6,44,0.00,CLR,,0.00,WeatherDisplay:10.37,2013-01-22 08:46:00,
2013-01-22 03:51:00,33.0,13.4,30.06,WNW,296,10.0,10.0,44,0.00,CLR,,0.00,WeatherDisplay:10.37,2013-01-22 08:51:00,
2013-01-22 03:56:00,32.9,13.3,30.06,North,360,4.0,4.2,44,0.00,CLR,,0.00,WeatherDisplay:10.37,2013-01-22 08:56:00,
2013-01-22 04:01:00,32.9,12.8,30.06,NW,306,15.0,15.0,43,0.00,CLR,,0.00,WeatherDisplay:10.37,2013-01-22 09:01:00,
2013-01-22 04:06:00,32.9,12.3,30.06,NW,309,13.8,13.8,42,0.00,CLR,,0.00,WeatherDisplay:10.37,2013-01-22 09:06:00,
2013-01-22 04:11:00,32.8,12.7,30.06,WNW,296,9.0,9.0,43,0.00,CLR,,0.00,WeatherDisplay:10.37,2013-01-22 09:11:00,
2013-01-22 04:16:00,32.8,12.2,30.06,WNW,286,18.4,18.4,42,0.00,CLR,,0.00,WeatherDisplay:10.37,2013-01-22 09:16:00,
2013-01-22 04:21:00,32.9,12.3,30.07,WNW,287,16.1,16.1,42,0.00,CLR,,0.00,WeatherDisplay:10.37,2013-01-22 09:21:00,
2013-01-22 04:26:00,32.8,12.2,30.07,WNW,298,13.0,13.0,42,0.00,CLR,,0.00,WeatherDisplay:10.37,2013-01-22 09:26:00,
2013-01-22 04:31:00,32.8,12.2,30.07,NW,321,13.8,13.8,42,0.00,CLR,,0.00,WeatherDisplay:10.37,2013-01-22 09:31:00,
2013-01-22 04:36:00,32.6,12.0,30.07,WNW,288,18.0,18.0,42,0.00,CLR,,0.00,WeatherDisplay:10.37,2013-01-22 09:36:00,
2013-01-22 04:41:00,32.5,12.5,30.07,NNW,329,12.7,12.7,43,0.00,CLR,,0.00,WeatherDisplay:10.37,2013-01-22 09:41:00,
2013-01-22 04:46:00,32.3,12.3,30.07,NW,309,13.8,13.8,43,0.00,CLR,,0.00,WeatherDisplay:10.37,2013-01-22 09:46:00,
2013-01-22 04:51:00,32.1,12.1,30.07,NW,316,10.4,10.4,43,0.00,CLR,,0.00,WeatherDisplay:10.37,2013-01-22 09:51:00,
2013-01-22 04:56:00,32.0,12.0,30.07,NNW,348,11.5,11.5,43,0.00,CLR,,0.00,WeatherDisplay:10.37,2013-01-22 09:56:00,
2013-01-22 05:01:00,31.9,12.4,30.08,NNW,331,11.5,11.5,44,0.00,CLR,,0.00,WeatherDisplay:10.37,2013-01-22 10:01:00,
2013-01-22 05:06:00,31.7,12.2,30.08,NNW,338,9.2,9.2,44,0.00,CLR,,0.00,WeatherDisplay:10.37,2013-01-22 10:06:00,
2013-01-22 05:11:00,31.5,12.6,30.08,NW,319,4.6,4.6,45,0.00,CLR,,0.00,WeatherDisplay:10.37,2013-01-22 10:11:00,
2013-01-22 05:16:00,31.3,12.4,30.09,NNW,344,4.6,0.0,45,0.00,CLR,,0.00,WeatherDisplay:10.37,2013-01-22 10:16:00,
2013-01-22 05:21:00,31.1,12.2,30.10,North,9,5.8,5.8,45,0.00,CLR,,0.00,WeatherDisplay:10.37,2013-01-22 10:21:00,
2013-01-22 05:26:00,31.0,12.6,30.10,North,11,4.6,4.6,46,0.00,CLR,,0.00,WeatherDisplay:10.37,2013-01-22 10:26:00,
2013-01-22 05:31:00,30.8,12.4,30.10,NNE,15,5.0,5.0,46,0.00,CLR,,0.00,WeatherDisplay:10.37,2013-01-22 10:31:00,
2013-01-22 05:36:00,30.6,12.2,30.10,NNE,20,3.5,3.5,46,0.00,CLR,,0.00,WeatherDisplay:10.37,2013-01-22 10:36:00,
2013-01-22 05:41:00,30.4,12.5,30.10,NNE,26,3.5,3.5,47,0.00,CLR,,0.00,WeatherDisplay:10.37,2013-01-22 10:41:00,
2013-01-22 05:46:00,30.3,12.5,30.11,North,355,2.0,2.0,47,0.00,CLR,,0.00,WeatherDisplay:10.37,2013-01-22 10:46:00,
2013-01-22 05:51:00,30.3,12.5,30.11,NNE,12,4.6,5.6,47,0.00,CLR,,0.00,WeatherDisplay:10.37,2013-01-22 10:51:00,
2013-01-22 05:56:00,30.3,12.5,30.12,NNW,346,3.5,3.5,47,0.00,CLR,,0.00,WeatherDisplay:10.37,2013-01-22 10:56:00,
2013-01-22 06:01:00,30.2,12.4,30.12,NNW,348,6.9,6.9,47,0.00,CLR,,0.00,WeatherDisplay:10.37,2013-01-22 11:01:00,
2013-01-22 06:06:00,30.2,12.8,30.12,NNW,342,5.8,5.8,48,0.00,CLR,,0.00,WeatherDisplay:10.37,2013-01-22 11:06:00,
2013-01-22 06:11:00,30.1,12.3,30.12,North,350,6.9,6.9,47,0.00,CLR,,0.00,WeatherDisplay:10.37,2013-01-22 11:11:00,
2013-01-22 06:16:00,30.0,12.2,30.13,NNW,337,9.2,9.2,47,0.00,CLR,,0.00,WeatherDisplay:10.37,2013-01-22 11:16:00,
2013-01-22 06:21:00,30.0,12.7,30.12,North,360,10.4,10.4,48,0.00,CLR,,0.00,WeatherDisplay:10.37,2013-01-22 11:21:00,
2013-01-22 06:27:00,29.9,12.1,30.12,North,350,7.0,7.9,47,0.00,CLR,,0.00,WeatherDisplay:10.37,2013-01-22 11:27:00,
2013-01-22 06:32:00,29.9,12.6,30.12,NNW,331,9.2,9.2,48,0.00,CLR,,0.00,WeatherDisplay:10.37,2013-01-22 11:32:00,
2013-01-22 06:37:00,29.8,12.5,30.12,NNW,346,10.0,10.0,48,0.00,CLR,,0.00,WeatherDisplay:10.37,2013-01-22 11:37:00,
2013-01-22 06:42:00,29.7,12.4,30.13,NNW,329,10.4,10.4,48,0.00,CLR,,0.00,WeatherDisplay:10.37,2013-01-22 11:42:00,
2013-01-22 06:47:00,29.7,11.9,30.13,NNW,346,3.5,3.5,47,0.00,CLR,,0.00,WeatherDisplay:10.37,2013-01-22 11:47:00,
2013-01-22 06:52:00,29.7,11.9,30.13,NW,323,5.8,5.8,47,0.00,CLR,,0.00,WeatherDisplay:10.37,2013-01-22 11:52:00,
2013-01-22 06:57:00,29.7,12.4,30.14,West,275,0.0,0.0,48,0.00,CLR,,0.00,WeatherDisplay:10.37,2013-01-22 11:57:00,
2013-01-22 07:02:00,29.5,12.7,30.14,West,269,0.0,0.0,49,0.00,CLR,,0.00,WeatherDisplay:10.37,2013-01-22 12:02:00,
2013-01-22 07:07:00,29.4,12.6,30.15,WSW,238,3.5,3.5,49,0.00,CLR,,0.00,WeatherDisplay:10.37,2013-01-22 12:07:00,
2013-01-22 07:12:00,29.2,11.9,30.15,SW,231,5.8,5.8,48,0.00,CLR,,0.00,WeatherDisplay:10.37,2013-01-22 12:12:00,
2013-01-22 07:17:00,29.0,12.2,30.15,SW,234,4.0,4.0,49,0.00,CLR,,0.00,WeatherDisplay:10.37,2013-01-22 12:17:00,
2013-01-22 07:22:00,28.8,12.0,30.15,WSW,249,6.9,6.9,49,0.00,CLR,,0.00,WeatherDisplay:10.37,2013-01-22 12:22:00,
2013-01-22 07:27:00,28.7,11.9,30.16,WSW,248,5.8,5.8,49,0.00,CLR,,0.00,WeatherDisplay:10.37,2013-01-22 12:27:00,
2013-01-22 07:32:00,28.7,11.9,30.16,WSW,257,11.5,11.5,49,0.00,CLR,,0.00,WeatherDisplay:10.37,2013-01-22 12:32:00,
2013-01-22 07:37:00,28.8,12.0,30.17,WSW,250,7.0,7.0,49,0.00,CLR,,0.00,WeatherDisplay:10.37,2013-01-22 12:37:00,
2013-01-22 07:42:00,28.8,12.5,30.17,West,267,4.0,4.0,50,0.00,CLR,,0.00,WeatherDisplay:10.37,2013-01-22 12:42:00,
2013-01-22 07:47:00,28.6,11.8,30.17,WNW,299,0.0,0.0,49,0.00,CLR,,0.00,WeatherDisplay:10.37,2013-01-22 12:47:00,
2013-01-22 07:52:00,28.5,11.3,30.17,WNW,299,0.0,0.0,48,0.00,CLR,,0.00,WeatherDisplay:10.37,2013-01-22 12:52:00,
2013-01-22 07:57:00,28.4,11.6,30.17,NNW,333,3.0,3.0,49,0.00,CLR,,0.00,WeatherDisplay:10.37,2013-01-22 12:57:00,
2013-01-22 08:03:00,28.4,9.7,30.18,NNW,343,4.6,4.6,45,0.00,CLR,,0.00,WeatherDisplay:10.37,2013-01-22 13:03:00,
2013-01-22 08:08:00,28.6,9.9,30.18,North,355,0.0,0.0,45,0.00,CLR,,0.00,WeatherDisplay:10.37,2013-01-22 13:08:00,
2013-01-22 08:13:00,28.8,10.1,30.18,NNW,337,5.0,5.0,45,0.00,CLR,,0.00,WeatherDisplay:10.37,2013-01-22 13:13:00,
2013-01-22 08:18:00,29.0,10.3,30.18,North,360,6.9,6.9,45,0.00,CLR,,0.00,WeatherDisplay:10.37,2013-01-22 13:18:00,
2013-01-22 08:23:00,29.2,10.5,30.19,NNW,334,6.9,6.9,45,0.00,CLR,,0.00,WeatherDisplay:10.37,2013-01-22 13:23:00,
2013-01-22 08:29:00,29.4,9.6,30.19,NNW,347,11.5,11.5,43,0.00,CLR,,0.00,WeatherDisplay:10.37,2013-01-22 13:29:00,
2013-01-22 08:34:00,29.6,10.3,30.19,NNW,336,9.0,9.0,44,0.00,CLR,,0.00,WeatherDisplay:10.37,2013-01-22 13:34:00,
2013-01-22 08:39:00,29.8,10.5,30.19,NNW,334,9.2,9.2,44,0.00,CLR,,0.00,WeatherDisplay:10.37,2013-01-22 13:39:00,
2013-01-22 08:44:00,30.1,10.3,30.19,NNW,329,11.5,11.5,43,0.00,CLR,,0.00,WeatherDisplay:10.37,2013-01-22 13:44:00,
2013-01-22 08:49:00,30.3,10.4,30.19,NNW,330,11.5,11.5,43,0.00,CLR,,0.00,WeatherDisplay:10.37,2013-01-22 13:49:00,
2013-01-22 08:54:00,30.6,11.2,30.19,North,355,8.1,8.1,44,0.00,CLR,,0.00,WeatherDisplay:10.37,2013-01-22 13:54:00,
2013-01-22 08:59:00,30.8,11.4,30.20,NNW,332,6.9,6.9,44,0.00,CLR,,0.00,WeatherDisplay:10.37,2013-01-22 13:59:00,
2013-01-22 09:04:00,31.1,10.6,30.20,North,355,6.9,6.9,42,0.00,CLR,,0.00,WeatherDisplay:10.37,2013-01-22 14:04:00,
2013-01-22 09:09:00,31.4,9.3,30.20,NNE,23,11.5,11.5,39,0.00,CLR,,0.00,WeatherDisplay:10.37,2013-01-22 14:09:00,
2013-01-22 09:14:00,31.5,8.8,30.21,North,350,11.5,11.5,38,0.00,CLR,,0.00,WeatherDisplay:10.37,2013-01-22 14:14:00,
2013-01-22 09:19:00,31.7,9.5,30.21,NW,322,5.8,5.8,39,0.00,CLR,,0.00,WeatherDisplay:10.37,2013-01-22 14:19:00,
2013-01-22 09:24:00,31.9,9.1,30.21,NNW,340,10.4,10.4,38,0.00,CLR,,0.00,WeatherDisplay:10.37,2013-01-22 14:24:00,
2013-01-22 09:29:00,32.0,9.2,30.22,North,360,11.5,11.5,38,0.00,CLR,,0.00,WeatherDisplay:10.37,2013-01-22 14:29:00,
2013-01-22 09:34:00,32.1,8.7,30.22,NNW,342,6.9,6.9,37,0.00,CLR,,0.00,WeatherDisplay:10.37,2013-01-22 14:34:00,
2013-01-22 09:39:00,32.1,8.7,30.22,NE,36,10.4,10.4,37,0.00,CLR,,0.00,WeatherDisplay:10.37,2013-01-22 14:39:00,
2013-01-22 09:44:00,32.2,8.8,30.23,North,360,8.1,8.1,37,0.00,CLR,,0.00,WeatherDisplay:10.37,2013-01-22 14:44:00,
2013-01-22 09:49:00,32.3,7.0,30.23,North,350,16.1,16.1,34,0.00,CLR,,0.00,WeatherDisplay:10.37,2013-01-22 14:49:00,
2013-01-22 09:54:00,32.3,7.0,30.23,North,349,12.0,12.0,34,0.00,CLR,,0.00,WeatherDisplay:10.37,2013-01-22 14:54:00,
2013-01-22 09:59:00,32.3,7.0,30.23,WNW,300,15.0,15.0,34,0.00,CLR,,0.00,WeatherDisplay:10.37,2013-01-22 14:59:00,
2013-01-22 10:04:00,32.3,7.0,30.23,WNW,301,5.8,5.8,34,0.00,CLR,,0.00,WeatherDisplay:10.37,2013-01-22 15:04:00,
2013-01-22 10:09:00,32.6,7.3,30.23,NNW,342,12.7,12.7,34,0.00,CLR,,0.00,WeatherDisplay:10.37,2013-01-22 15:09:00,
2013-01-22 10:14:00,32.7,7.4,30.23,WNW,286,10.4,10.4,34,0.00,CLR,,0.00,WeatherDisplay:10.37,2013-01-22 15:14:00,
2013-01-22 10:19:00,32.8,7.5,30.24,NNE,17,12.7,12.7,34,0.00,CLR,,0.00,WeatherDisplay:10.37,2013-01-22 15:19:00,
2013-01-22 10:24:00,32.9,6.9,30.24,NNW,330,8.1,8.1,33,0.00,CLR,,0.00,WeatherDisplay:10.37,2013-01-22 15:24:00,
2013-01-22 10:29:00,33.0,6.3,30.24,NW,315,12.7,12.7,32,0.00,CLR,,0.00,WeatherDisplay:10.37,2013-01-22 15:29:00,
2013-01-22 10:34:00,33.0,7.0,30.25,NNW,342,6.9,6.9,33,0.00,CLR,,0.00,WeatherDisplay:10.37,2013-01-22 15:34:00,
2013-01-22 10:39:00,33.3,7.9,30.25,NNW,330,6.0,6.0,34,0.00,CLR,,0.00,WeatherDisplay:10.37,2013-01-22 15:39:00,
2013-01-22 10:44:00,33.6,6.8,30.25,NNE,14,11.5,11.5,32,0.00,CLR,,0.00,WeatherDisplay:10.37,2013-01-22 15:44:00,
2013-01-22 10:49:00,33.7,8.3,30.25,NNE,21,10.4,10.4,34,0.00,CLR,,0.00,WeatherDisplay:10.37,2013-01-22 15:49:00,
2013-01-22 10:54:00,34.0,7.9,30.25,NW,324,10.4,10.4,33,0.00,CLR,,0.00,WeatherDisplay:10.37,2013-01-22 15:54:00,
2013-01-22 10:59:00,34.3,7.4,30.25,NW,317,10.4,10.4,32,0.00,CLR,,0.00,WeatherDisplay:10.37,2013-01-22 15:59:00,
2013-01-22 11:04:00,34.4,7.5,30.24,WNW,282,12.0,12.0,32,0.00,CLR,,0.00,WeatherDisplay:10.37,2013-01-22 16:04:00,
2013-01-22 11:09:00,34.3,6.0,30.24,NNW,327,11.5,11.5,30,0.00,CLR,,0.00,WeatherDisplay:10.37,2013-01-22 16:09:00,
2013-01-22 11:14:00,34.4,6.8,30.25,WNW,303,11.5,11.5,31,0.00,CLR,,0.00,WeatherDisplay:10.37,2013-01-22 16:14:00,
2013-01-22 11:19:00,34.4,6.1,30.24,NW,326,9.2,9.2,30,0.00,CLR,,0.00,WeatherDisplay:10.37,2013-01-22 16:19:00,
2013-01-22 11:24:00,34.4,6.8,30.24,NW,313,10.4,10.4,31,0.00,CLR,,0.00,WeatherDisplay:10.37,2013-01-22 16:24:00,
2013-01-22 11:29:00,34.4,6.1,30.25,WNW,296,15.0,15.0,30,0.00,CLR,,0.00,WeatherDisplay:10.37,2013-01-22 16:29:00,
2013-01-22 11:34:00,34.8,6.5,30.24,NNW,331,5.8,5.8,30,0.00,CLR,,0.00,WeatherDisplay:10.37,2013-01-22 16:34:00,
2013-01-22 11:40:00,35.0,6.6,30.24,NNW,343,10.4,10.4,30,0.00,CLR,,0.00,WeatherDisplay:10.37,2013-01-22 16:40:00,
2013-01-22 11:45:00,35.4,7.0,30.24,NE,40,9.2,9.2,30,0.00,CLR,,0.00,WeatherDisplay:10.37,2013-01-22 16:45:00,
2013-01-22 11:50:00,35.4,7.0,30.23,NW,321,10.4,10.4,30,0.00,CLR,,0.00,WeatherDisplay:10.37,2013-01-22 16:50:00,
2013-01-22 11:55:00,35.5,7.1,30.23,NNW,346,9.2,9.2,30,0.00,CLR,,0.00,WeatherDisplay:10.37,2013-01-22 16:55:00,
2013-01-22 12:00:00,35.7,6.5,30.23,NNW,346,10.4,10.4,29,0.00,CLR,,0.00,WeatherDisplay:10.37,2013-01-22 17:00:00,
2013-01-22 12:05:00,35.9,7.4,30.23,WNW,288,17.3,17.3,30,0.00,CLR,,0.00,WeatherDisplay:10.37,2013-01-22 17:05:00,
2013-01-22 12:10:00,36.0,7.5,30.23,West,268,11.5,11.5,30,0.00,CLR,,0.00,WeatherDisplay:10.37,2013-01-22 17:10:00,
2013-01-22 12:15:00,36.0,6.8,30.23,NNW,342,11.5,11.5,29,0.00,CLR,,0.00,WeatherDisplay:10.37,2013-01-22 17:15:00,
2013-01-22 12:20:00,36.0,6.8,30.23,NW,318,11.5,11.5,29,0.00,CLR,,0.00,WeatherDisplay:10.37,2013-01-22 17:20:00,
2013-01-22 12:25:00,36.1,6.9,30.22,NE,36,10.4,10.4,29,0.00,CLR,,0.00,WeatherDisplay:10.37,2013-01-22 17:25:00,
2013-01-22 12:30:00,35.9,5.9,30.22,ENE,57,10.4,10.4,28,0.00,CLR,,0.00,WeatherDisplay:10.37,2013-01-22 17:30:00,
2013-01-22 12:35:00,36.1,8.3,30.22,NNW,329,10.4,10.4,31,0.00,CLR,,0.00,WeatherDisplay:10.37,2013-01-22 17:35:00,
2013-01-22 12:40:00,36.3,7.0,30.22,West,263,10.4,10.4,29,0.00,CLR,,0.00,WeatherDisplay:10.37,2013-01-22 17:40:00,
2013-01-22 12:45:00,36.3,7.0,30.21,NNE,12,6.9,6.9,29,0.00,CLR,,0.00,WeatherDisplay:10.37,2013-01-22 17:45:00,
2013-01-22 12:50:00,36.6,7.3,30.21,WNW,283,11.5,11.5,29,0.00,CLR,,0.00,WeatherDisplay:10.37,2013-01-22 17:50:00,
2013-01-22 12:55:00,37.0,8.4,30.21,WSW,254,12.7,12.7,30,0.00,CLR,,0.00,WeatherDisplay:10.37,2013-01-22 17:55:00,
2013-01-22 13:00:00,37.0,9.8,30.21,NW,319,5.8,5.8,32,0.00,CLR,,0.00,WeatherDisplay:10.37,2013-01-22 18:00:00,
2013-01-22 13:05:00,37.4,8.7,30.20,WNW,288,13.8,13.8,30,0.00,CLR,,0.00,WeatherDisplay:10.37,2013-01-22 18:05:00,
2013-01-22 13:10:00,37.5,7.3,30.20,WNW,290,11.5,11.5,28,0.00,CLR,,0.00,WeatherDisplay:10.37,2013-01-22 18:10:00,
2013-01-22 13:15:00,37.4,7.2,30.21,WNW,287,15.0,15.0,28,0.00,CLR,,0.00,WeatherDisplay:10.37,2013-01-22 18:15:00,
2013-01-22 13:20:00,37.3,7.1,30.20,NW,313,10.4,10.4,28,0.00,CLR,,0.00,WeatherDisplay:10.37,2013-01-22 18:20:00,
2013-01-22 13:25:00,37.3,7.9,30.20,NW,309,10.0,10.0,29,0.00,CLR,,0.00,WeatherDisplay:10.37,2013-01-22 18:25:00,
2013-01-22 13:30:00,37.5,7.3,30.20,West,261,15.0,15.0,28,0.00,CLR,,0.00,WeatherDisplay:10.37,2013-01-22 18:30:00,
2013-01-22 13:35:00,37.5,7.3,30.20,NW,304,9.2,9.2,28,0.00,CLR,,0.00,WeatherDisplay:10.37,2013-01-22 18:35:00,
2013-01-22 13:40:00,37.6,6.6,30.20,WNW,283,11.5,11.5,27,0.00,CLR,,0.00,WeatherDisplay:10.37,2013-01-22 18:40:00,
2013-01-22 13:45:00,37.8,6.8,30.20,West,267,16.1,16.1,27,0.00,CLR,,0.00,WeatherDisplay:10.37,2013-01-22 18:45:00,
2013-01-22 13:50:00,37.7,5.8,30.20,NW,315,11.5,11.5,26,0.00,CLR,,0.00,WeatherDisplay:10.37,2013-01-22 18:50:00,
2013-01-22 13:55:00,37.9,4.3,30.20,West,272,18.0,18.0,24,0.00,CLR,,0.00,WeatherDisplay:10.37,2013-01-22 18:55:00,
2013-01-22 14:00:00,37.9,3.3,30.20,WNW,287,18.4,18.4,23,0.00,CLR,,0.00,WeatherDisplay:10.37,2013-01-22 19:00:00,
2013-01-22 14:05:00,37.8,3.2,30.20,NW,317,19.6,19.6,23,0.00,CLR,,0.00,WeatherDisplay:10.37,2013-01-22 19:05:00,
2013-01-22 14:10:00,37.7,3.2,30.20,WNW,284,15.0,15.0,23,0.00,CLR,,0.00,WeatherDisplay:10.37,2013-01-22 19:10:00,
2013-01-22 14:15:00,37.9,2.4,30.20,NW,312,18.4,18.4,22,0.00,CLR,,0.00,WeatherDisplay:10.37,2013-01-22 19:15:00,
2013-01-22 14:20:00,38.2,5.4,30.19,WNW,299,21.9,21.9,25,0.00,CLR,,0.00,WeatherDisplay:10.37,2013-01-22 19:20:00,
2013-01-22 14:25:00,38.5,4.8,30.19,WNW,288,16.1,16.1,24,0.00,CLR,,0.00,WeatherDisplay:10.37,2013-01-22 19:25:00,
2013-01-22 14:30:00,38.6,3.0,30.20,WNW,298,15.0,15.0,22,0.00,CLR,,0.00,WeatherDisplay:10.37,2013-01-22 19:30:00,
2013-01-22 14:35:00,38.6,4.9,30.20,WNW,288,25.3,25.3,24,0.00,CLR,,0.00,WeatherDisplay:10.37,2013-01-22 19:35:00,
2013-01-22 14:40:00,38.8,4.1,30.20,NW,312,18.4,18.4,23,0.00,CLR,,0.00,WeatherDisplay:10.37,2013-01-22 19:40:00,
2013-01-22 14:45:00,38.9,4.2,30.20,West,264,20.0,20.0,23,0.00,CLR,,0.00,WeatherDisplay:10.37,2013-01-22 19:45:00,
2013-01-22 14:50:00,38.9,3.2,30.21,West,280,23.0,23.0,22,0.00,CLR,,0.00,WeatherDisplay:10.37,2013-01-22 19:50:00,
2013-01-22 14:55:00,38.9,2.2,30.20,WNW,300,18.4,18.4,21,0.00,CLR,,0.00,WeatherDisplay:10.37,2013-01-22 19:55:00,
2013-01-22 15:00:00,38.9,4.2,30.19,WSW,250,20.7,20.7,23,0.00,CLR,,0.00,WeatherDisplay:10.37,2013-01-22 20:00:00,
2013-01-22 15:05:00,39.0,3.3,30.19,WNW,290,15.0,15.0,22,0.00,CLR,,0.00,WeatherDisplay:10.37,2013-01-22 20:05:00,
2013-01-22 15:10:00,39.1,3.4,30.19,WNW,296,17.0,17.0,22,0.00,CLR,,0.00,WeatherDisplay:10.37,2013-01-22 20:10:00,
2013-01-22 15:15:00,39.0,5.2,30.19,WNW,294,11.5,11.5,24,0.00,CLR,,0.00,WeatherDisplay:10.37,2013-01-22 20:15:00,
2013-01-22 15:20:00,39.2,4.4,30.19,WNW,300,15.0,15.0,23,0.00,CLR,,0.00,WeatherDisplay:10.37,2013-01-22 20:20:00,
2013-01-22 15:25:00,39.1,3.4,30.19,WNW,298,11.5,11.5,22,0.00,CLR,,0.00,WeatherDisplay:10.37,2013-01-22 20:25:00,
2013-01-22 15:30:00,39.1,6.2,30.19,West,265,15.0,15.0,25,0.00,CLR,,0.00,WeatherDisplay:10.37,2013-01-22 20:30:00,
2013-01-22 15:35:00,39.2,7.1,30.20,West,279,16.1,16.1,26,0.00,CLR,,0.00,WeatherDisplay:10.37,2013-01-22 20:35:00,
2013-01-22 15:40:00,39.2,6.3,30.20,WNW,289,17.3,17.3,25,0.00,CLR,,0.00,WeatherDisplay:10.37,2013-01-22 20:40:00,
2013-01-22 15:46:00,39.0,5.2,30.20,WNW,289,11.5,11.5,24,0.00,CLR,,0.00,WeatherDisplay:10.37,2013-01-22 20:46:00,
2013-01-22 15:53:00,38.9,6.9,30.20,West,281,10.4,10.4,26,0.00,CLR,,0.00,WeatherDisplay:10.37,2013-01-22 20:53:00,
2013-01-22 15:58:00,39.1,7.0,30.20,West,280,12.7,12.7,26,0.00,CLR,,0.00,WeatherDisplay:10.37,2013-01-22 20:58:00,
2013-01-22 16:03:00,39.1,6.2,30.21,West,261,15.0,15.0,25,0.00,CLR,,0.00,WeatherDisplay:10.37,2013-01-22 21:03:00,
2013-01-22 16:08:00,39.1,7.0,30.20,WNW,298,10.4,10.4,26,0.00,CLR,,0.00,WeatherDisplay:10.37,2013-01-22 21:08:00,
2013-01-22 16:13:00,39.1,7.0,30.20,West,263,14.0,14.0,26,0.00,CLR,,0.00,WeatherDisplay:10.37,2013-01-22 21:13:00,
2013-01-22 16:18:00,39.0,7.8,30.20,West,262,12.0,12.0,27,0.00,CLR,,0.00,WeatherDisplay:10.37,2013-01-22 21:18:00,
2013-01-22 16:23:00,38.9,7.7,30.20,West,280,11.5,11.5,27,0.00,CLR,,0.00,WeatherDisplay:10.37,2013-01-22 21:23:00,
2013-01-22 16:28:00,38.9,7.7,30.20,West,260,15.0,15.0,27,0.00,CLR,,0.00,WeatherDisplay:10.37,2013-01-22 21:28:00,
2013-01-22 16:31:00,38.8,7.6,30.21,West,263,12.0,12.0,27,0.00,CLR,,0.00,WeatherDisplay:10.37,2013-01-22 21:31:00,
2013-01-22 16:36:00,38.8,6.8,30.20,WNW,294,6.9,6.9,26,0.00,CLR,,0.00,WeatherDisplay:10.37,2013-01-22 21:36:00,
2013-01-22 16:42:00,38.8,6.8,30.20,West,263,10.0,10.0,26,0.00,CLR,,0.00,WeatherDisplay:10.37,2013-01-22 21:42:00,
2013-01-22 16:47:00,38.7,8.3,30.20,WNW,286,11.5,11.5,28,0.00,CLR,,0.00,WeatherDisplay:10.37,2013-01-22 21:47:00,
2013-01-22 16:52:00,38.7,9.1,30.21,West,272,9.2,9.2,29,0.00,CLR,,0.00,WeatherDisplay:10.37,2013-01-22 21:52:00,
2013-01-22 16:57:00,38.5,7.4,30.21,West,267,8.1,8.1,27,0.00,CLR,,0.00,WeatherDisplay:10.37,2013-01-22 21:57:00,
2013-01-22 17:02:00,38.3,7.2,30.21,WNW,283,5.8,5.8,27,0.00,CLR,,0.00,WeatherDisplay:10.37,2013-01-22 22:02:00,
2013-01-22 17:07:00,38.3,7.2,30.21,WNW,291,3.5,3.5,27,0.00,CLR,,0.00,WeatherDisplay:10.37,2013-01-22 22:07:00,
2013-01-22 17:13:00,38.2,7.1,30.21,WNW,291,4.0,4.0,27,0.00,CLR,,0.00,WeatherDisplay:10.37,2013-01-22 22:13:00,
2013-01-22 17:18:00,38.0,8.5,30.21,WNW,284,7.0,7.0,29,0.00,CLR,,0.00,WeatherDisplay:10.37,2013-01-22 22:18:00,
2013-01-22 17:23:00,37.7,7.5,30.21,WNW,285,5.8,5.8,28,0.00,CLR,,0.00,WeatherDisplay:10.37,2013-01-22 22:23:00,
2013-01-22 17:28:00,37.5,7.3,30.22,WNW,291,4.6,4.6,28,0.00,CLR,,0.00,WeatherDisplay:10.37,2013-01-22 22:28:00,
2013-01-22 17:33:00,37.3,6.3,30.22,WNW,291,2.3,2.3,27,0.00,CLR,,0.00,WeatherDisplay:10.37,2013-01-22 22:33:00,
2013-01-22 17:38:00,37.1,6.1,30.22,WNW,291,2.3,2.3,27,0.00,CLR,,0.00,WeatherDisplay:10.37,2013-01-22 22:38:00,
2013-01-22 17:43:00,36.8,5.1,30.22,WNW,291,3.5,3.5,26,0.00,CLR,,0.00,WeatherDisplay:10.37,2013-01-22 22:43:00,
2013-01-22 17:48:00,36.5,4.8,30.22,WNW,291,0.0,0.0,26,0.00,CLR,,0.00,WeatherDisplay:10.37,2013-01-22 22:48:00,
2013-01-22 17:53:00,36.2,4.5,30.23,WNW,298,4.6,4.6,26,0.00,CLR,,0.00,WeatherDisplay:10.37,2013-01-22 22:53:00,
2013-01-22 17:58:00,36.0,5.2,30.23,WNW,298,3.5,3.5,27,0.00,CLR,,0.00,WeatherDisplay:10.37,2013-01-22 22:58:00,
2013-01-22 18:03:00,35.8,4.2,30.23,WNW,298,3.5,3.5,26,0.00,CLR,,0.00,WeatherDisplay:10.37,2013-01-22 23:03:00,
2013-01-22 18:08:00,35.6,4.8,30.23,NW,317,3.5,3.5,27,0.00,CLR,,0.00,WeatherDisplay:10.37,2013-01-22 23:08:00,
2013-01-22 18:13:00,35.5,4.8,30.23,NW,317,0.0,0.0,27,0.00,CLR,,0.00,WeatherDisplay:10.37,2013-01-22 23:13:00,
2013-01-22 18:18:00,35.3,4.6,30.23,NW,317,0.0,0.0,27,0.00,CLR,,0.00,WeatherDisplay:10.37,2013-01-22 23:18:00,
2013-01-22 18:23:00,35.0,4.3,30.24,NW,317,0.0,0.0,27,0.00,CLR,,0.00,WeatherDisplay:10.37,2013-01-22 23:23:00,
2013-01-22 18:28:00,34.8,4.2,30.24,NW,317,0.0,0.0,27,0.00,CLR,,0.00,WeatherDisplay:10.37,2013-01-22 23:28:00,
2013-01-22 18:33:00,34.4,3.8,30.24,NW,317,0.0,0.0,27,0.00,CLR,,0.00,WeatherDisplay:10.37,2013-01-22 23:33:00,
2013-01-22 18:38:00,34.4,3.8,30.25,NW,317,0.0,0.0,27,0.00,CLR,,0.00,WeatherDisplay:10.37,2013-01-22 23:38:00,
2013-01-22 18:43:00,34.3,4.5,30.25,NW,317,0.0,0.0,28,0.00,CLR,,0.00,WeatherDisplay:10.37,2013-01-22 23:43:00,
2013-01-22 18:48:00,34.1,3.5,30.25,NW,317,0.0,0.0,27,0.00,CLR,,0.00,WeatherDisplay:10.37,2013-01-22 23:48:00,
2013-01-22 18:53:00,34.0,4.3,30.25,NE,40,3.5,3.5,28,0.00,CLR,,0.00,WeatherDisplay:10.37,2013-01-22 23:53:00,
2013-01-22 18:58:00,33.8,3.3,30.24,NNW,332,3.5,3.5,27,0.00,CLR,,0.00,WeatherDisplay:10.37,2013-01-22 23:58:00,
2013-01-22 19:03:00,33.7,3.2,30.24,NNW,332,2.3,0.0,27,0.00,CLR,,0.00,WeatherDisplay:10.37,2013-01-23 00:03:00,
2013-01-22 19:08:00,33.6,3.9,30.24,NNW,331,2.3,2.3,28,0.00,CLR,,0.00,WeatherDisplay:10.37,2013-01-23 00:08:00,
2013-01-22 19:13:00,33.4,3.7,30.24,NNW,331,3.5,3.5,28,0.00,CLR,,0.00,WeatherDisplay:10.37,2013-01-23 00:13:00,
2013-01-22 19:18:00,33.2,4.3,30.23,NW,309,3.5,3.5,29,0.00,CLR,,0.00,WeatherDisplay:10.37,2013-01-23 00:18:00,
2013-01-22 19:23:00,32.9,4.1,30.23,WNW,298,4.6,4.6,29,0.00,CLR,,0.00,WeatherDisplay:10.37,2013-01-23 00:23:00,
2013-01-22 19:28:00,32.8,4.7,30.23,NW,315,4.6,4.6,30,0.00,CLR,,0.00,WeatherDisplay:10.37,2013-01-23 00:28:00,
2013-01-22 19:33:00,32.6,3.8,30.23,NW,309,4.6,4.6,29,0.00,CLR,,0.00,WeatherDisplay:10.37,2013-01-23 00:33:00,
2013-01-22 19:38:00,32.4,4.4,30.23,WNW,302,3.5,3.5,30,0.00,CLR,,0.00,WeatherDisplay:10.37,2013-01-23 00:38:00,
2013-01-22 19:43:00,32.2,3.4,30.23,NW,307,9.2,9.2,29,0.00,CLR,,0.00,WeatherDisplay:10.37,2013-01-23 00:43:00,
2013-01-22 19:48:00,32.1,4.1,30.23,NW,325,3.5,3.5,30,0.00,CLR,,0.00,WeatherDisplay:10.37,2013-01-23 00:48:00,
2013-01-22 19:53:00,32.1,3.4,30.23,NNW,334,4.6,4.6,29,0.00,CLR,,0.00,WeatherDisplay:10.37,2013-01-23 00:53:00,
2013-01-22 19:58:00,32.0,3.3,30.24,NNW,344,0.0,0.0,29,0.00,CLR,,0.00,WeatherDisplay:10.37,2013-01-23 00:58:00,
2013-01-22 20:04:00,32.1,3.4,30.24,East,83,0.0,0.0,29,0.00,CLR,,0.00,WeatherDisplay:10.37,2013-01-23 01:04:00,
2013-01-22 20:09:00,31.9,3.2,30.25,East,83,2.3,2.3,29,0.00,CLR,,0.00,WeatherDisplay:10.37,2013-01-23 01:09:00,
2013-01-22 20:14:00,31.8,3.1,30.25,East,82,0.0,0.0,29,0.00,CLR,,0.00,WeatherDisplay:10.37,2013-01-23 01:14:00,
2013-01-22 20:19:00,31.9,3.9,30.25,East,81,3.5,3.5,30,0.00,CLR,,0.00,WeatherDisplay:10.37,2013-01-23 01:19:00,
2013-01-22 20:24:00,31.8,3.8,30.25,East,79,3.5,3.5,30,0.00,CLR,,0.00,WeatherDisplay:10.37,2013-01-23 01:24:00,
2013-01-22 20:29:00,31.8,3.8,30.25,NE,42,5.8,5.8,30,0.00,CLR,,0.00,WeatherDisplay:10.37,2013-01-23 01:29:00,
2013-01-22 20:34:00,31.9,3.9,30.25,NE,40,4.6,4.6,30,0.00,CLR,,0.00,WeatherDisplay:10.37,2013-01-23 01:34:00,
2013-01-22 20:39:00,31.9,4.6,30.25,NNE,26,4.6,4.6,31,0.00,CLR,,0.00,WeatherDisplay:10.37,2013-01-23 01:39:00,
2013-01-22 20:44:00,31.9,3.9,30.25,North,355,4.6,4.6,30,0.00,CLR,,0.00,WeatherDisplay:10.37,2013-01-23 01:44:00,
2013-01-22 20:49:00,31.8,4.5,30.24,NNW,334,3.0,3.0,31,0.00,CLR,,0.00,WeatherDisplay:10.37,2013-01-23 01:49:00,
2013-01-22 20:54:00,31.7,4.5,30.24,NNW,336,4.6,4.6,31,0.00,CLR,,0.00,WeatherDisplay:10.37,2013-01-23 01:54:00,
2013-01-22 20:59:00,31.5,5.0,30.24,NNW,338,6.0,6.0,32,0.00,CLR,,0.00,WeatherDisplay:10.37,2013-01-23 01:59:00,
2013-01-22 21:04:00,31.2,4.7,30.25,NW,325,3.5,3.5,32,0.00,CLR,,0.00,WeatherDisplay:10.37,2013-01-23 02:04:00,
2013-01-22 21:09:00,30.9,5.1,30.25,NW,312,2.3,2.3,33,0.00,CLR,,0.00,WeatherDisplay:10.37,2013-01-23 02:09:00,
2013-01-22 21:14:00,30.7,4.3,30.26,NW,312,0.0,0.0,32,0.00,CLR,,0.00,WeatherDisplay:10.37,2013-01-23 02:14:00,
2013-01-22 21:19:00,30.6,4.2,30.26,NW,315,3.5,3.5,32,0.00,CLR,,0.00,WeatherDisplay:10.37,2013-01-23 02:19:00,
2013-01-22 21:24:00,30.5,4.1,30.26,NW,322,3.5,3.5,32,0.00,CLR,,0.00,WeatherDisplay:10.37,2013-01-23 02:24:00,
2013-01-22 21:29:00,30.5,4.1,30.26,NW,311,3.5,3.5,32,0.00,CLR,,0.00,WeatherDisplay:10.37,2013-01-23 02:29:00,
2013-01-22 21:34:00,30.7,4.3,30.27,NW,309,4.0,4.0,32,0.00,CLR,,0.00,WeatherDisplay:10.37,2013-01-23 02:34:00,
2013-01-22 21:39:00,30.8,4.4,30.27,NW,317,3.5,3.5,32,0.00,CLR,,0.00,WeatherDisplay:10.37,2013-01-23 02:39:00,
2013-01-22 21:44:00,31.0,4.5,30.27,NNW,335,4.0,4.0,32,0.00,CLR,,0.00,WeatherDisplay:10.37,2013-01-23 02:44:00,
2013-01-22 21:49:00,31.2,4.0,30.27,NNW,333,3.5,3.5,31,0.00,CLR,,0.00,WeatherDisplay:10.37,2013-01-23 02:49:00,
2013-01-22 21:54:00,31.4,3.5,30.28,NNW,340,3.5,3.5,30,0.00,CLR,,0.00,WeatherDisplay:10.37,2013-01-23 02:54:00,
2013-01-22 21:59:00,31.5,4.3,30.27,NNW,340,0.0,0.0,31,0.00,CLR,,0.00,WeatherDisplay:10.37,2013-01-23 02:59:00,
2013-01-22 22:04:00,31.6,4.4,30.28,North,350,0.0,0.0,31,0.00,CLR,,0.00,WeatherDisplay:10.37,2013-01-23 03:04:00,
2013-01-22 22:09:00,31.7,5.2,30.27,North,350,0.0,0.0,32,0.00,CLR,,0.00,WeatherDisplay:10.37,2013-01-23 03:09:00,
2013-01-22 22:14:00,31.6,5.1,30.27,North,360,0.0,0.0,32,0.00,CLR,,0.00,WeatherDisplay:10.37,2013-01-23 03:14:00,
2013-01-22 22:19:00,31.5,4.3,30.27,NE,56,0.0,0.0,31,0.00,CLR,,0.00,WeatherDisplay:10.37,2013-01-23 03:19:00,
2013-01-22 22:24:00,31.4,4.2,30.27,NE,56,0.0,0.0,31,0.00,CLR,,0.00,WeatherDisplay:10.37,2013-01-23 03:24:00,
2013-01-22 22:29:00,31.2,4.0,30.27,NE,34,3.5,3.5,31,0.00,CLR,,0.00,WeatherDisplay:10.37,2013-01-23 03:29:00,
2013-01-22 22:34:00,31.1,3.9,30.27,NE,45,3.5,3.5,31,0.00,CLR,,0.00,WeatherDisplay:10.37,2013-01-23 03:34:00,
2013-01-22 22:39:00,30.9,4.4,30.27,NE,45,0.0,0.0,32,0.00,CLR,,0.00,WeatherDisplay:10.37,2013-01-23 03:39:00,
2013-01-22 22:44:00,30.7,4.3,30.27,NE,45,0.0,0.0,32,0.00,CLR,,0.00,WeatherDisplay:10.37,2013-01-23 03:44:00,
2013-01-22 22:49:00,30.6,4.2,30.27,NE,45,0.0,0.0,32,0.00,CLR,,0.00,WeatherDisplay:10.37,2013-01-23 03:49:00,
2013-01-22 22:54:00,30.4,4.7,30.27,NE,45,0.0,0.0,33,0.00,CLR,,0.00,WeatherDisplay:10.37,2013-01-23 03:54:00,
2013-01-22 22:59:00,30.2,3.8,30.27,North,360,0.0,0.0,32,0.00,CLR,,0.00,WeatherDisplay:10.37,2013-01-23 03:59:00,
2013-01-22 23:04:00,30.1,3.7,30.27,North,360,0.0,0.0,32,0.00,CLR,,0.00,WeatherDisplay:10.37,2013-01-23 04:04:00,
2013-01-22 23:09:00,30.1,3.7,30.27,North,360,0.0,0.0,32,0.00,CLR,,0.00,WeatherDisplay:10.37,2013-01-23 04:09:00,
2013-01-22 23:14:00,30.1,3.7,30.27,North,360,0.0,0.0,32,0.00,CLR,,0.00,WeatherDisplay:10.37,2013-01-23 04:14:00,
2013-01-22 23:19:00,30.1,3.7,30.27,North,360,0.0,0.0,32,0.00,CLR,,0.00,WeatherDisplay:10.37,2013-01-23 04:19:00,
2013-01-22 23:24:00,30.1,3.7,30.27,North,360,0.0,0.0,32,0.00,CLR,,0.00,WeatherDisplay:10.37,2013-01-23 04:24:00,
2013-01-22 23:29:00,30.0,3.7,30.28,North,360,0.0,0.0,32,0.00,CLR,,0.00,WeatherDisplay:10.37,2013-01-23 04:29:00,
2013-01-22 23:34:00,29.9,4.2,30.28,North,360,0.0,0.0,33,0.00,CLR,,0.00,WeatherDisplay:10.37,2013-01-23 04:34:00,
2013-01-22 23:39:00,29.9,4.2,30.28,North,360,0.0,0.0,33,0.00,CLR,,0.00,WeatherDisplay:10.37,2013-01-23 04:39:00,
2013-01-22 23:44:00,29.7,5.3,30.28,North,360,0.0,0.0,35,0.00,CLR,,0.00,WeatherDisplay:10.37,2013-01-23 04:44:00,
2013-01-22 23:49:00,29.6,4.6,30.28,North,360,0.0,0.0,34,0.00,CLR,,0.00,WeatherDisplay:10.37,2013-01-23 04:49:00,
2013-01-22 23:54:00,29.4,5.1,30.28,North,360,0.0,0.0,35,0.00,CLR,,0.00,WeatherDisplay:10.37,2013-01-23 04:54:00,
2013-01-22 23:59:00,29.3,5.0,30.28,North,360,0.0,0.0,35,0.00,CLR,,0.00,WeatherDisplay:10.37,2013-01-23 04:59:00,